| time (UTC) | temp F | wind direction | speed knots | gust knots | rain 1hr in | rain 24hr in | rain mn in | humidity % | barometer mb |
| 20260504001555 | 52 | 254 | 3.5 | 13.0 | 0.00 | 0.00 | 0.00 | 57 | 1011.3 |
| 20260504000052 | 53 | 172 | 6.1 | 13.0 | 0.00 | 0.00 | 0.00 | 54 | 1011.3 |
| 20260503234615 | 53 | 219 | 6.1 | 16.5 | 0.00 | 0.00 | 0.00 | 53 | 1011.3 |
| 20260503233052 | 54 | 223 | 4.3 | 16.5 | 0.00 | 0.00 | 0.00 | 53 | 1011.3 |
| 20260503231549 | 53 | 261 | 6.1 | 16.5 | 0.00 | 0.00 | 0.00 | 53 | 1011.3 |
| 20260503230048 | 53 | 262 | 4.3 | 20.0 | 0.00 | 0.00 | 0.00 | 57 | 1011.5 |
| 20260503224547 | 53 | 234 | 7.0 | 16.5 | 0.00 | 0.00 | 0.00 | 57 | 1011.8 |
| 20260503223047 | 52 | 265 | 7.0 | 19.1 | 0.00 | 0.00 | 0.00 | 57 | 1011.8 |
| 20260503221556 | 52 | 227 | 5.2 | 14.8 | 0.00 | 0.00 | 0.00 | 57 | 1011.9 |
| 20260503220047 | 53 | 268 | 7.8 | 21.7 | 0.00 | 0.00 | 0.00 | 55 | 1012.1 |
| 20260503214545 | 53 | 232 | 6.1 | 17.4 | 0.00 | 0.00 | 0.00 | 56 | 1011.9 |
| 20260503213046 | 53 | 265 | 7.8 | 18.2 | 0.00 | 0.00 | 0.00 | 56 | 1011.9 |
| 20260503211544 | 53 | 142 | 5.2 | 22.6 | 0.00 | 0.00 | 0.00 | 57 | 1011.7 |
| 20260503210044 | 52 | 196 | 8.7 | 17.4 | 0.00 | 0.00 | 0.00 | 58 | 1011.8 |
| 20260503204545 | 53 | 263 | 5.2 | 18.2 | 0.00 | 0.00 | 0.00 | 56 | 1011.9 |
| 20260503203053 | 52 | 286 | 8.7 | 22.6 | 0.00 | 0.00 | 0.00 | 56 | 1012.2 |
| 20260503201543 | 53 | 244 | 7.8 | 17.4 | 0.00 | 0.00 | 0.00 | 56 | 1012.2 |
| 20260503200040 | 54 | 229 | 6.1 | 21.7 | 0.00 | 0.00 | 0.00 | 54 | 1012.3 |
| 20260503194541 | 53 | 278 | 9.6 | 24.3 | 0.00 | 0.00 | 0.00 | 53 | 1012.6 |
| 20260503193036 | 53 | 259 | 7.0 | 16.5 | 0.00 | 0.00 | 0.00 | 55 | 1012.8 |
| 20260503191536 | 53 | 296 | 6.1 | 20.9 | 0.00 | 0.00 | 0.00 | 56 | 1013.1 |
| 20260503190032 | 52 | 257 | 7.0 | 19.1 | 0.00 | 0.00 | 0.00 | 57 | 1013.4 |
| 20260503184531 | 51 | 236 | 10.4 | 20.9 | 0.00 | 0.00 | 0.00 | 54 | 1013.5 |
| 20260503183031 | 53 | 267 | 8.7 | 19.1 | 0.00 | 0.00 | 0.00 | 51 | 1013.5 |
| 20260503181530 | 54 | 271 | 9.6 | 20.0 | 0.00 | 0.00 | 0.00 | 45 | 1013.5 |
| 20260503180029 | 54 | 234 | 8.7 | 17.4 | 0.00 | 0.00 | 0.00 | 42 | 1013.9 |
| 20260503174526 | 54 | 280 | 4.3 | 15.6 | 0.00 | 0.00 | 0.00 | 44 | 1014.1 |
| 20260503173028 | 53 | 228 | 7.8 | 17.4 | 0.00 | 0.00 | 0.00 | 43 | 1014.4 |
| 20260503171522 | 54 | 288 | 6.1 | 14.8 | 0.00 | 0.00 | 0.00 | 41 | 1014.5 |
| 20260503140108 | 46 | 310 | 6.1 | 18.2 | 0.00 | 0.00 | 0.00 | 75 | 1016.0 |
| 20260503081531 | 37 | 244 | 2.6 | 7.8 | 0.00 | 0.00 | 0.00 | 84 | 1016.2 |
| 20260503071524 | 35 | 165 | 0.9 | 3.5 | 0.00 | 0.00 | 0.00 | 87 | 1016.2 |
| 20260503054514 | 36 | 173 | 0.9 | 3.5 | 0.00 | 0.00 | 0.00 | 86 | 1016.5 |
| 20260503053012 | 36 | 173 | 0.0 | 3.5 | 0.00 | 0.00 | 0.00 | 84 | 1016.5 |
| 20260503051510 | 37 | 173 | 0.0 | 2.6 | 0.00 | 0.00 | 0.00 | 83 | 1016.6 |
| 20260503050017 | 38 | 172 | 0.0 | 2.6 | 0.00 | 0.00 | 0.00 | 82 | 1016.7 |
| 20260503044502 | 38 | 175 | 0.0 | 2.6 | 0.00 | 0.00 | 0.00 | 81 | 1016.8 |
| 20260503043105 | 39 | 223 | 0.9 | 5.2 | 0.00 | 0.00 | 0.00 | 80 | 1016.9 |
| 20260503041558 | 39 | 207 | 0.9 | 2.6 | 0.00 | 0.00 | 0.00 | 80 | 1016.9 |
| 20260503040111 | 40 | 229 | 0.9 | 3.5 | 0.00 | 0.00 | 0.00 | 79 | 1017.0 |
| 20260503034555 | 40 | 224 | 0.9 | 4.3 | 0.00 | 0.00 | 0.00 | 78 | 1016.9 |
| 20260503033054 | 40 | 248 | 0.9 | 5.2 | 0.00 | 0.00 | 0.00 | 77 | 1017.0 |
| 20260503031604 | 40 | 258 | 1.7 | 4.3 | 0.00 | 0.00 | 0.00 | 79 | 1017.0 |
| 20260503030054 | 40 | 194 | 0.9 | 4.3 | 0.00 | 0.00 | 0.00 | 79 | 1017.0 |
| 20260503024553 | 40 | 195 | 0.9 | 2.6 | 0.00 | 0.00 | 0.00 | 80 | 1017.2 |
| 20260503023052 | 40 | 180 | 0.9 | 3.5 | 0.00 | 0.00 | 0.00 | 79 | 1017.3 |
| 20260503021552 | 40 | 174 | 0.9 | 3.5 | 0.00 | 0.00 | 0.00 | 78 | 1017.4 |
| 20260503020054 | 40 | 167 | 0.0 | 3.5 | 0.00 | 0.00 | 0.00 | 76 | 1017.5 |
| 20260503014607 | 40 | 194 | 1.7 | 4.3 | 0.00 | 0.00 | 0.00 | 74 | 1017.5 |
| 20260503013050 | 41 | 215 | 1.7 | 3.5 | 0.00 | 0.00 | 0.00 | 72 | 1017.5 |
| 20260503011555 | 41 | 234 | 0.0 | 2.6 | 0.00 | 0.00 | 0.00 | 71 | 1017.4 |
| 20260503010050 | 41 | 214 | 0.0 | 3.5 | 0.00 | 0.00 | 0.00 | 73 | 1017.4 |
| 20260503004549 | 41 | 250 | 0.0 | 5.2 | 0.00 | 0.00 | 0.00 | 73 | 1017.3 |
| 20260503003049 | 41 | 271 | 0.9 | 3.5 | 0.00 | 0.00 | 0.00 | 74 | 1017.2 |